Year,Month,Day,Hour,Minute,Value (Times are PST for windgust in km/hr)
2014,12,12,00,55,16.10
2014,12,12,00,56,25.70
2014,12,12,00,57,30.60
2014,12,12,00,58,33.80
2014,12,12,00,59,49.90
2014,12,12,01,00,53.10
2014,12,12,01,01,25.70
2014,12,12,01,02,37.00
2014,12,12,01,03,29.00
2014,12,12,01,04,33.80
2014,12,12,01,05,25.70
2014,12,12,01,06,43.50
2014,12,12,01,07,35.40
2014,12,12,01,08,53.10
2014,12,12,01,09,24.20
2014,12,12,01,10,35.40
2014,12,12,01,11,51.50
2014,12,12,01,12,49.90
2014,12,12,01,13,35.40
2014,12,12,01,14,33.80
2014,12,12,01,15,40.20
2014,12,12,01,16,32.20
2014,12,12,01,17,33.80
2014,12,12,04,55,4.80
2014,12,12,04,56,6.40
2014,12,12,04,57,9.60
2014,12,12,04,58,9.60
2014,12,12,04,59,12.90
2014,12,12,05,00,14.50
2014,12,12,05,01,11.30
2014,12,12,05,02,8.10
2014,12,12,05,03,4.80
2014,12,12,05,04,14.50
2014,12,12,05,05,9.60
2014,12,12,05,06,9.60
2014,12,12,05,07,6.40
2014,12,12,05,08,17.70
2014,12,12,05,09,16.10
2014,12,12,05,10,16.10
2014,12,12,05,11,9.60
2014,12,12,05,12,8.10
2014,12,12,05,13,6.40
2014,12,12,05,14,4.80
2014,12,12,05,15,4.80
2014,12,12,05,16,6.40
2014,12,12,05,17,1.60
2014,12,12,05,18,6.40
2014,12,12,05,19,1.60
2014,12,12,05,20,4.80
2014,12,12,05,21,6.40
2014,12,12,05,22,17.70
2014,12,12,05,23,11.30
2014,12,12,05,24,8.10
2014,12,12,05,25,4.80
2014,12,12,05,26,6.40
2014,12,12,05,27,11.30
2014,12,12,05,28,8.10
2014,12,12,05,29,6.40
2014,12,12,05,30,11.30
2014,12,12,05,31,4.80
2014,12,12,05,32,8.10
2014,12,12,05,33,4.80
2014,12,12,05,34,8.10
2014,12,12,05,35,4.80
2014,12,12,05,36,8.10
2014,12,12,05,37,1.60
2014,12,12,05,38,4.80
2014,12,12,05,39,4.80
2014,12,12,05,40,12.90
2014,12,12,05,41,8.10
2014,12,12,05,42,14.50
2014,12,12,05,43,19.30
2014,12,12,05,44,6.40
2014,12,12,05,45,6.40
2014,12,12,05,46,6.40
2014,12,12,05,47,14.50
2014,12,12,05,48,11.30
2014,12,12,05,49,4.80
2014,12,12,05,50,11.30
2014,12,12,05,51,6.40
2014,12,12,05,52,19.30
2014,12,12,05,53,8.10
2014,12,12,05,54,4.80
2014,12,12,05,55,16.10
2014,12,12,05,56,9.60
2014,12,12,05,57,19.30
2014,12,12,05,58,19.30
2014,12,12,05,59,22.50
2014,12,12,06,00,8.10
2014,12,12,06,01,9.60
2014,12,12,06,02,22.50
2014,12,12,06,03,14.50
2014,12,12,06,04,9.60
2014,12,12,06,05,4.80
2014,12,12,06,06,9.60
2014,12,12,06,07,8.10
2014,12,12,06,08,11.30
2014,12,12,06,09,16.10
2014,12,12,06,10,16.10
2014,12,12,06,11,17.70
2014,12,12,06,12,8.10
2014,12,12,06,13,6.40
2014,12,12,06,14,1.60
2014,12,12,06,15,8.10
2014,12,12,06,16,6.40
2014,12,12,06,17,6.40
2014,12,12,06,19,4.80
2014,12,12,06,20,9.60
2014,12,12,06,21,8.10
2014,12,12,06,22,1.60
2014,12,12,06,23,3.20
2014,12,12,06,24,16.10
2014,12,12,06,25,11.30
2014,12,12,06,26,6.40
2014,12,12,06,27,3.20
2014,12,12,06,28,3.20
2014,12,12,06,29,6.40
2014,12,12,06,32,8.10
2014,12,12,06,33,9.60
2014,12,12,06,34,6.40
2014,12,12,06,35,3.20
2014,12,12,06,36,3.20
2014,12,12,06,43,3.20
2014,12,12,06,44,4.80
2014,12,12,06,46,1.60
2014,12,12,06,48,4.80
2014,12,12,06,49,4.80
2014,12,12,06,51,1.60
2014,12,12,06,52,4.80
2014,12,12,06,53,3.20
2014,12,12,06,54,3.20
2014,12,12,06,55,3.20
2014,12,12,06,57,1.60
2014,12,12,06,59,1.60
2014,12,12,07,02,1.60
2014,12,12,07,03,8.10
2014,12,12,07,04,14.50
2014,12,12,07,05,6.40
2014,12,12,07,06,9.60
2014,12,12,07,07,4.80
2014,12,12,07,08,3.20
2014,12,12,07,09,3.20
2014,12,12,07,10,3.20
2014,12,12,07,11,1.60
2014,12,12,07,12,4.80
2014,12,12,07,13,1.60
2014,12,12,07,14,8.10
2014,12,12,07,17,3.20
2014,12,12,07,18,6.40
2014,12,12,07,19,9.60
2014,12,12,07,20,1.60
2014,12,12,07,21,6.40
2014,12,12,07,22,3.20
2014,12,12,07,23,1.60
2014,12,12,07,24,1.60
2014,12,12,07,25,1.60
2014,12,12,07,26,3.20
2014,12,12,07,27,3.20
2014,12,12,07,28,6.40
2014,12,12,07,29,4.80
2014,12,12,07,30,3.20
2014,12,12,07,31,9.60
2014,12,12,07,32,9.60
2014,12,12,07,33,16.10
2014,12,12,07,34,8.10
2014,12,12,07,35,4.80
2014,12,12,07,36,4.80
2014,12,12,07,37,4.80
2014,12,12,07,38,4.80
2014,12,12,07,39,4.80
2014,12,12,07,40,1.60
2014,12,12,07,41,3.20
2014,12,12,07,42,6.40
2014,12,12,07,43,4.80
2014,12,12,07,45,1.60
2014,12,12,07,46,8.10
2014,12,12,07,47,4.80
2014,12,12,07,48,1.60
2014,12,12,07,49,3.20
2014,12,12,07,50,3.20
2014,12,12,07,52,3.20
2014,12,12,07,53,3.20
2014,12,12,07,54,3.20
2014,12,12,07,55,4.80
2014,12,12,07,57,6.40
2014,12,12,07,58,4.80
2014,12,12,07,59,1.60
2014,12,12,08,01,4.80
2014,12,12,08,02,4.80
2014,12,12,08,13,1.60
2014,12,12,08,16,4.80
2014,12,12,08,17,6.40
2014,12,12,08,18,1.60
2014,12,12,08,19,3.20
2014,12,12,08,20,4.80
2014,12,12,08,21,6.40
2014,12,12,08,22,3.20
2014,12,12,08,23,3.20
2014,12,12,08,24,3.20
2014,12,12,08,25,3.20
2014,12,12,08,28,1.60
2014,12,12,08,29,3.20
2014,12,12,08,33,1.60
2014,12,12,08,34,1.60
2014,12,12,08,35,1.60
2014,12,12,08,36,3.20
2014,12,12,08,37,1.60
2014,12,12,08,38,3.20
2014,12,12,08,39,1.60
2014,12,12,08,42,3.20
2014,12,12,08,43,6.40
2014,12,12,08,44,4.80
2014,12,12,08,45,4.80
2014,12,12,08,46,4.80
2014,12,12,08,50,1.60
2014,12,12,08,51,3.20
2014,12,12,08,52,3.20
2014,12,12,08,53,3.20
2014,12,12,08,54,3.20
2014,12,12,08,55,11.30
2014,12,12,08,56,6.40
2014,12,12,08,57,3.20
2014,12,12,09,03,1.60
2014,12,12,09,05,1.60
2014,12,12,09,06,3.20
2014,12,12,09,07,4.80
2014,12,12,09,08,1.60
2014,12,12,09,09,3.20
2014,12,12,09,10,1.60
2014,12,12,09,12,1.60
2014,12,12,09,14,1.60
2014,12,12,09,16,3.20
2014,12,12,09,17,4.80
2014,12,12,09,19,1.60
2014,12,12,09,20,3.20
2014,12,12,09,23,6.40
2014,12,12,09,24,4.80
2014,12,12,09,25,4.80
2014,12,12,09,26,1.60
2014,12,12,09,27,4.80
2014,12,12,09,28,8.10
2014,12,12,09,29,4.80
2014,12,12,09,30,1.60
2014,12,12,09,31,4.80
2014,12,12,09,32,3.20
2014,12,12,09,33,1.60
2014,12,12,09,35,1.60
2014,12,12,09,36,3.20
2014,12,12,09,37,3.20
2014,12,12,09,40,1.60
2014,12,12,09,43,3.20
2014,12,12,09,44,3.20
2014,12,12,09,47,1.60
2014,12,12,09,49,3.20
2014,12,12,09,50,3.20
2014,12,12,09,52,1.60
2014,12,12,09,53,6.40
2014,12,12,09,54,8.10
2014,12,12,09,55,8.10
2014,12,12,09,56,6.40
2014,12,12,09,57,3.20
2014,12,12,09,58,3.20
2014,12,12,09,59,3.20
2014,12,12,10,00,3.20
2014,12,12,10,01,16.10
2014,12,12,10,02,8.10
2014,12,12,10,03,6.40
2014,12,12,10,04,8.10
2014,12,12,10,05,6.40
2014,12,12,10,06,4.80
2014,12,12,10,07,6.40
2014,12,12,10,08,4.80
2014,12,12,10,09,3.20
2014,12,12,10,10,1.60
2014,12,12,10,11,3.20
2014,12,12,10,12,1.60
2014,12,12,10,13,8.10
2014,12,12,10,14,8.10
2014,12,12,10,15,8.10
2014,12,12,10,16,8.10
2014,12,12,10,17,1.60
2014,12,12,10,19,1.60
2014,12,12,10,20,3.20
2014,12,12,10,21,3.20
2014,12,12,10,22,3.20
2014,12,12,10,23,9.60
2014,12,12,10,24,6.40
2014,12,12,10,25,4.80
2014,12,12,10,27,9.60
2014,12,12,10,28,9.60
2014,12,12,10,29,4.80
2014,12,12,10,30,1.60
2014,12,12,10,31,3.20
2014,12,12,10,32,6.40
2014,12,12,10,33,6.40
2014,12,12,10,34,6.40
2014,12,12,10,35,11.30
2014,12,12,10,36,4.80
2014,12,12,10,37,1.60
2014,12,12,10,38,16.10
2014,12,12,10,39,16.10
2014,12,12,10,40,11.30
2014,12,12,10,41,6.40
2014,12,12,10,42,14.50
2014,12,12,10,43,11.30
2014,12,12,10,44,9.60
2014,12,12,10,45,9.60
2014,12,12,10,46,4.80
2014,12,12,10,47,8.10
2014,12,12,10,48,17.70
2014,12,12,10,49,11.30
2014,12,12,10,50,17.70
2014,12,12,10,51,9.60
2014,12,12,10,52,6.40
2014,12,12,10,53,3.20
2014,12,12,10,54,6.40
2014,12,12,10,55,9.60
2014,12,12,10,56,6.40
2014,12,12,10,57,3.20
2014,12,12,10,58,8.10
2014,12,12,10,59,6.40
2014,12,12,11,00,8.10
2014,12,12,11,01,4.80
2014,12,12,11,02,9.60
2014,12,12,11,03,9.60
2014,12,12,11,04,16.10
2014,12,12,11,05,6.40
2014,12,12,11,06,16.10
2014,12,12,11,07,17.70
2014,12,12,11,08,14.50
2014,12,12,11,09,9.60
2014,12,12,11,10,11.30
2014,12,12,11,11,19.30
2014,12,12,11,12,16.10
2014,12,12,11,13,11.30
2014,12,12,11,14,8.10
2014,12,12,11,15,16.10
2014,12,12,11,16,8.10
2014,12,12,11,17,8.10
2014,12,12,11,18,8.10
2014,12,12,11,19,4.80
2014,12,12,11,20,12.90
2014,12,12,11,21,9.60
2014,12,12,11,22,6.40
2014,12,12,11,23,1.60
2014,12,12,11,24,4.80
2014,12,12,11,25,1.60
2014,12,12,11,26,6.40
2014,12,12,11,27,11.30
2014,12,12,11,28,6.40
2014,12,12,11,29,3.20
2014,12,12,11,30,9.60
2014,12,12,11,31,12.90
2014,12,12,11,32,4.80
2014,12,12,11,33,1.60
2014,12,12,11,34,6.40
2014,12,12,11,35,6.40
2014,12,12,11,36,11.30
2014,12,12,11,37,9.60
2014,12,12,11,38,3.20
2014,12,12,11,39,9.60
2014,12,12,11,40,8.10
2014,12,12,11,41,6.40
2014,12,12,11,42,9.60
2014,12,12,11,43,4.80
2014,12,12,11,44,6.40
2014,12,12,11,45,11.30
2014,12,12,11,46,11.30
2014,12,12,11,47,11.30
2014,12,12,11,48,11.30
2014,12,12,11,49,8.10
2014,12,12,11,50,16.10
2014,12,12,11,51,11.30
2014,12,12,11,52,6.40
2014,12,12,11,53,8.10
2014,12,12,11,54,9.60
2014,12,12,11,55,9.60
2014,12,12,11,56,4.80
2014,12,12,11,57,9.60
2014,12,12,11,58,8.10
2014,12,12,11,59,14.50
2014,12,12,12,00,8.10
2014,12,12,12,01,14.50
2014,12,12,12,02,1.60
2014,12,12,12,03,6.40
2014,12,12,12,04,6.40
2014,12,12,12,05,11.30
2014,12,12,12,06,9.60
2014,12,12,12,07,4.80
2014,12,12,12,08,9.60
2014,12,12,12,09,8.10
2014,12,12,12,10,1.60
2014,12,12,12,11,1.60
2014,12,12,12,12,8.10
2014,12,12,12,13,8.10
2014,12,12,12,14,11.30
2014,12,12,12,15,9.60
2014,12,12,12,16,8.10
2014,12,12,12,17,9.60
2014,12,12,12,18,8.10
2014,12,12,12,19,1.60
2014,12,12,12,20,3.20
2014,12,12,12,22,9.60
2014,12,12,12,23,6.40
2014,12,12,12,24,9.60
2014,12,12,12,25,8.10
2014,12,12,12,26,9.60
2014,12,12,12,27,9.60
2014,12,12,12,28,4.80
2014,12,12,12,29,6.40
2014,12,12,12,30,6.40
2014,12,12,12,31,4.80
2014,12,12,12,32,4.80
2014,12,12,12,33,8.10
2014,12,12,12,34,8.10
2014,12,12,12,35,4.80
2014,12,12,12,36,6.40
2014,12,12,12,37,14.50
2014,12,12,12,38,6.40
2014,12,12,12,39,9.60
2014,12,12,12,40,6.40
2014,12,12,12,41,9.60
2014,12,12,12,42,11.30
2014,12,12,12,43,6.40
2014,12,12,12,44,9.60
2014,12,12,12,45,4.80
2014,12,12,12,46,8.10
2014,12,12,12,47,4.80
2014,12,12,12,48,8.10
2014,12,12,12,49,9.60
2014,12,12,12,50,11.30
2014,12,12,12,51,9.60
2014,12,12,12,52,1.60
2014,12,12,12,53,14.50
2014,12,12,12,54,17.70
2014,12,12,12,55,1.60
2014,12,12,12,57,9.60
2014,12,12,12,58,14.50
2014,12,12,12,59,3.20
2014,12,12,13,00,4.80
2014,12,12,13,01,6.40
2014,12,12,13,02,6.40
2014,12,12,13,03,8.10
2014,12,12,13,04,8.10
2014,12,12,13,05,4.80
2014,12,12,13,06,9.60
2014,12,12,13,07,9.60
2014,12,12,13,08,11.30
2014,12,12,13,09,4.80
2014,12,12,13,10,9.60
2014,12,12,13,11,9.60
2014,12,12,13,12,6.40
2014,12,12,13,13,6.40
2014,12,12,13,14,6.40
2014,12,12,13,15,8.10
2014,12,12,13,16,14.50
2014,12,12,13,17,3.20
2014,12,12,13,18,12.90
2014,12,12,13,19,4.80
2014,12,12,13,20,3.20
2014,12,12,13,21,8.10
2014,12,12,13,22,11.30
2014,12,12,13,23,8.10
2014,12,12,13,24,3.20
2014,12,12,13,25,4.80
2014,12,12,13,26,3.20
2014,12,12,13,27,4.80
2014,12,12,13,28,4.80
2014,12,12,13,29,1.60
2014,12,12,13,31,3.20
2014,12,12,13,32,3.20
2014,12,12,13,33,4.80
2014,12,12,13,34,6.40
2014,12,12,13,35,1.60
2014,12,12,13,36,4.80
2014,12,12,13,37,4.80
2014,12,12,13,38,9.60
2014,12,12,13,39,8.10
2014,12,12,13,40,4.80
2014,12,12,13,41,3.20
2014,12,12,13,42,4.80
2014,12,12,13,43,6.40
2014,12,12,13,44,6.40
2014,12,12,13,45,6.40
2014,12,12,13,46,11.30
2014,12,12,13,47,6.40
2014,12,12,13,48,4.80
2014,12,12,13,49,6.40
2014,12,12,13,50,6.40
2014,12,12,13,51,9.60
2014,12,12,13,52,11.30
2014,12,12,13,53,14.50
2014,12,12,13,54,9.60
2014,12,12,13,55,9.60
2014,12,12,13,56,6.40
2014,12,12,13,57,4.80
2014,12,12,13,58,14.50
2014,12,12,13,59,9.60
2014,12,12,14,00,14.50
2014,12,12,14,01,8.10
2014,12,12,14,02,12.90
2014,12,12,14,03,4.80
2014,12,12,14,04,3.20
2014,12,12,14,05,11.30
2014,12,12,14,06,9.60
2014,12,12,14,07,14.50
2014,12,12,14,08,8.10
2014,12,12,14,09,11.30
2014,12,12,14,10,4.80
2014,12,12,14,11,11.30
2014,12,12,14,12,11.30
2014,12,12,14,13,3.20
2014,12,12,14,14,3.20
2014,12,12,14,15,14.50
2014,12,12,14,16,4.80
2014,12,12,14,17,6.40
2014,12,12,14,18,8.10
2014,12,12,14,19,8.10
2014,12,12,14,20,4.80
2014,12,12,14,21,3.20
2014,12,12,14,22,3.20
2014,12,12,14,23,3.20
2014,12,12,14,24,11.30
2014,12,12,14,25,9.60
2014,12,12,14,26,8.10
2014,12,12,14,27,11.30
2014,12,12,14,28,9.60
2014,12,12,14,29,4.80
2014,12,12,14,30,4.80
2014,12,12,14,31,1.60
2014,12,12,14,32,11.30
2014,12,12,14,33,8.10
2014,12,12,14,34,4.80
2014,12,12,14,35,3.20
2014,12,12,14,36,6.40
2014,12,12,14,37,4.80
2014,12,12,14,39,1.60
2014,12,12,14,40,6.40
2014,12,12,14,41,4.80
2014,12,12,14,42,3.20
2014,12,12,14,43,4.80
2014,12,12,14,44,3.20
2014,12,12,14,45,6.40
2014,12,12,14,46,6.40
2014,12,12,14,47,4.80
2014,12,12,14,48,4.80
2014,12,12,14,49,9.60
2014,12,12,14,50,6.40
2014,12,12,14,51,4.80
2014,12,12,14,52,1.60
2014,12,12,14,53,1.60
2014,12,12,14,54,4.80
2014,12,12,14,55,8.10
2014,12,12,14,56,1.60
2014,12,12,14,57,3.20
2014,12,12,14,58,3.20
2014,12,12,14,59,1.60
2014,12,12,15,00,3.20
2014,12,12,15,01,1.60
2014,12,12,15,02,1.60
2014,12,12,15,03,1.60
2014,12,12,15,04,4.80
2014,12,12,15,05,1.60
2014,12,12,15,06,4.80
2014,12,12,15,07,3.20
2014,12,12,15,08,1.60
2014,12,12,15,09,3.20
2014,12,12,15,10,1.60
2014,12,12,15,11,4.80
2014,12,12,15,12,6.40
2014,12,12,15,13,3.20
2014,12,12,15,14,1.60
2014,12,12,15,15,3.20
2014,12,12,15,16,1.60
2014,12,12,15,17,1.60
2014,12,12,15,18,3.20
2014,12,12,15,20,1.60
2014,12,12,15,22,3.20
2014,12,12,15,23,1.60
2014,12,12,15,25,1.60
2014,12,12,15,26,3.20
2014,12,12,15,27,1.60
2014,12,12,15,29,1.60
2014,12,12,15,30,1.60
2014,12,12,15,31,1.60
2014,12,12,15,38,3.20
2014,12,12,15,39,1.60
2014,12,12,15,40,1.60
2014,12,12,15,41,3.20
2014,12,12,15,42,1.60
2014,12,12,15,43,1.60
2014,12,12,15,44,1.60
2014,12,12,15,45,1.60
2014,12,12,15,51,1.60
2014,12,12,15,54,1.60
2014,12,12,15,56,1.60
2014,12,12,15,57,1.60
2014,12,12,15,58,1.60
2014,12,12,16,00,1.60
2014,12,12,16,04,1.60
2014,12,12,16,11,1.60
2014,12,12,16,17,1.60
2014,12,12,16,25,1.60
2014,12,12,16,26,1.60
2014,12,12,16,27,3.20
2014,12,12,16,28,1.60
2014,12,12,16,30,1.60
2014,12,12,17,08,1.60
2014,12,12,17,14,1.60
2014,12,12,17,15,3.20
2014,12,12,17,16,3.20
2014,12,12,17,17,3.20
2014,12,12,17,18,3.20
2014,12,12,17,19,3.20
2014,12,12,17,20,3.20
2014,12,12,17,21,3.20
2014,12,12,17,22,4.80
2014,12,12,17,23,4.80
2014,12,12,17,24,1.60
2014,12,12,17,25,1.60
2014,12,12,17,26,4.80
2014,12,12,17,27,1.60
2014,12,12,17,28,4.80
2014,12,12,17,29,3.20
2014,12,12,17,30,3.20
2014,12,12,17,31,3.20
2014,12,12,17,42,1.60
2014,12,12,17,43,1.60
2014,12,12,17,45,1.60
2014,12,12,18,53,1.60
2014,12,12,19,13,1.60
2014,12,12,19,19,1.60
2014,12,12,19,20,1.60
2014,12,12,19,27,3.20
2014,12,12,19,28,3.20
2014,12,12,19,29,1.60
2014,12,12,19,30,1.60
2014,12,12,19,36,1.60
2014,12,12,19,37,1.60
2014,12,12,19,38,1.60
2014,12,12,19,40,1.60
2014,12,12,19,59,1.60
2014,12,12,20,34,1.60
2014,12,12,22,51,1.60
2014,12,12,22,52,3.20
2014,12,12,22,53,3.20
2014,12,12,23,22,1.60
2014,12,12,23,23,1.60
2014,12,12,23,50,1.60
2014,12,12,23,51,3.20
2014,12,12,23,52,1.60
2014,12,12,23,55,1.60
